TIME,DELAY(SENSOR),PRES,OXYGEN,RAWTEMP,T(OPTODE),TCPHASE,FLUOR,BETA(BETA700),BETA(BETA412),BETA(BETA440),CDOM,C(CSC),ED(ED412.20),ED(ED444.00),ED(ED489.60),ED(ED554.30),LU(LU412.10),LU(LU443.90),LU(LU489.70),LU(LU554.70),COMP,TILTX,TILTY,CHECK
1365998388,5811,861.1500244140625000,34.2318115234375000,562.7443237304688000,4.4008140563964840,56.4343986511230500,54,99,99,78,82,15529,0,0,0,0,2147124114,2147774464,2147569819,2147570121,294,2,13,24880
1366001984,5813,925.8699951171875000,38.5951499938964840,568.4003295898438000,4.2252621650695800,55.8079490661621100,55,97,101,77,82,15525,0,0,0,0,2147126262,2147774747,2147572123,2147567972,3355,2,13,35530
1366005584,5808,931.4699707031250000,38.6226997375488300,568.7921752929688000,4.2130870819091800,55.8123703002929700,55,97,99,77,82,15528,0,0,0,0,2147122139,2147773467,2147570880,2147567771,3038,2,13,61240
1366009184,5809,962.2399902343750000,40.0233192443847660,571.3076782226562000,4.1349182128906250,55.6287918090820300,55,104,99,78,82,15524,0,0,0,0,2147124425,2147773028,2147569874,2147565238,125,2,13,28850
1366012784,5810,967.8200073242188000,40.4052009582519500,571.6699829101562000,4.1236519813537600,55.5728111267089840,55,100,100,77,83,15525,0,0,0,0,2147123821,2147771474,2147571126,2147569974,3490,2,13,26382
1366016384,5810,969.4099731445312000,40.4183082580566400,571.4805297851562000,4.1295452117919920,55.5663414001464840,54,98,99,77,80,15518,0,0,0,0,2147121883,2147773586,2147572800,2147569856,3473,2,13,58753
1366019984,5811,994.2899780273438000,41.2679786682128900,573.6237792968750000,4.0628948211669920,55.4674987792968750,55,97,99,78,81,15517,0,0,0,0,2147122971,2147770395,2147572105,2147568612,3307,2,13,3204
1366023584,5807,996.1599731445312000,40.4477310180664060,574.1525268554688000,4.0464482307434080,55.5936203002929700,54,98,99,78,82,15515,0,0,0,0,2147121819,2147774985,2147573293,2147570020,252,2,13,45203
1366027184,5809,994.0300292968750000,41.3047103881835940,574.5612182617188000,4.0337300300598145,55.4728012084960940,54,98,101,78,82,15514,0,0,0,0,2147123574,2147773650,2147568758,2147565467,3583,2,13,45282
1366030784,5808,997.6900024414062000,41.8736305236816400,575.9384765625000000,3.9908699989318848,55.4053993225097660,55,99,100,78,82,15512,0,0,0,0,2147125860,2147771456,2147574299,2147564608,229,2,13,41992
1366034384,5807,995.4000244140625000,41.6996383666992200,575.6016845703125000,4.0013499259948730,55.4223594665527340,55,98,98,77,82,15509,0,0,0,0,2147126080,2147767945,2147573632,2147569033,146,2,13,2676
1366037984,5807,1002.5000000000000000,42.2033500671386700,575.3342285156250000,4.0096759796142580,55.3455085754394500,54,98,100,78,82,15512,0,0,0,0,2147124489,2147769325,2147574290,2147567762,3241,2,13,27148
1366041584,5810,1001.1799926757812000,41.5094604492187500,575.2529907226562000,4.0122032165527340,55.4490203857421900,54,97,99,77,83,15512,0,0,0,0,2147124516,2147776384,2147575414,2147566354,3543,2,13,17408
1366045184,5811,1003.3400268554688000,42.0601081848144500,575.2463989257812000,4.0124092102050780,55.3666801452636700,55,99,100,76,81,15510,0,0,0,0,2147121280,2147767945,2147571666,2147568393,3496,2,13,37657
1366048784,5811,1005.1099853515625000,42.1385993957519500,575.3107910156250000,4.0104060173034670,55.3560905456543000,54,98,100,77,80,15513,0,0,0,0,2147121472,2147771254,2147572662,2147570358,3556,2,13,12979
1366052384,5810,1006.0499877929688000,41.0686798095703100,574.3969726562500000,4.0388388633728030,55.5068817138671900,53,97,99,88,83,15512,0,0,0,0,2147124553,2147772800,2147574326,2147571318,112,2,13,30149
1366055984,5809,1000.5100097656250000,41.6464881896972660,575.3099975585938000,4.0104289054870605,55.4295082092285160,54,98,99,78,82,15508,0,0,0,0,2147125220,2147770806,2147571913,2147573083,566,2,13,12357
1366059584,5813,1000.0399780273438000,41.7555809020996100,575.4265136718750000,4.0068049430847170,55.4112510681152340,55,119,99,77,82,15510,0,0,0,0,2147125513,2147772882,2147569344,2147567753,38,2,13,20398
1366063184,5806,1003.2100219726562000,41.4752883911132800,575.3317260742188000,4.0097560882568360,55.4565811157226560,53,98,100,77,82,15512,0,0,0,0,2147124278,2147773129,2147570962,2147570724,249,2,13,28522
1366066784,5810,1008.3900146484375000,41.5242309570312500,575.2933959960938000,4.0109457969665530,55.4439811706543000,55,99,101,78,82,15475,0,0,0,0,2147123200,2147768512,2147573028,2147566893,47,3,13,11019
1366070384,5809,1003.0300292968750000,39.9042396545410160,575.3182983398438000,4.0101718902587890,55.6893196105957000,55,97,100,78,81,15470,0,0,0,0,2147124909,2147772004,2147573056,2147570441,145,2,13,8955
1366073984,5810,1005.0700073242188000,41.8255310058593750,575.9718017578125000,3.9898319244384766,55.4111709594726560,55,98,101,78,81,15467,0,0,0,0,2147118811,2147773814,2147573705,2147570523,31,2,13,42915
1366077584,5811,1002.5000000000000000,41.3030014038085940,575.3815917968750000,4.0082020759582520,55.4788093566894500,54,98,100,78,81,15465,0,0,0,0,2147125129,2147769179,2147571264,2147569499,2940,2,13,2705
1366081184,5809,1007.4199829101562000,41.7997093200683600,575.6868286132812000,3.9987030029296875,55.4080696105957000,55,99,100,77,81,15466,0,0,0,0,2147122477,2147771547,2147572150,2147568822,3253,2,13,21833
1366084784,5810,1010.0800170898438000,40.7006111145019500,575.3137817382812000,4.0103111267089840,55.5705299377441400,55,97,101,77,83,15451,0,0,0,0,2147124105,2147771245,2147572160,2147568438,133,2,13,7185
1366088384,5808,1001.0700073242188000,40.7218093872070300,575.3909301757812000,4.0079140663146970,55.5657997131347660,55,99,100,77,82,15469,0,0,0,0,2147120484,2147770532,2147570660,2147566308,213,2,13,19019
1366091984,5809,1000.0300292968750000,42.3594093322753900,575.7147216796875000,3.9978330135345460,55.3304405212402340,55,106,100,79,81,15467,0,0,0,0,2147122505,2147770230,2147568073,2147568420,616,2,13,44318
1366095584,5810,1007.8499755859375000,42.2073402404785160,575.6312866210938000,4.0004291534423830,55.3475608825683600,55,99,100,77,82,15465,0,0,0,0,2147123392,2147772470,2147568996,2147568466,37,2,13,2207
1366099184,5810,998.1900024414062000,41.1238594055175800,575.6502075195312000,3.9998419284820557,55.5106010437011700,54,98,100,77,82,15468,0,0,0,0,2147123035,2147774016,2147572891,2147566144,3213,2,13,1642
1366102784,5806,1003.2999877929688000,41.6290206909179700,575.8953247070312000,3.9922139644622803,55.4381599426269500,54,100,98,79,81,15463,0,0,0,0,2147121206,2147769737,2147566500,2147564397,3492,2,13,32104
1366106384,5809,1002.7800292968750000,41.2649002075195300,575.8685302734375000,3.9930479526519775,55.4923515319824200,55,97,100,79,82,15466,0,0,0,0,2147125760,2147771968,2147572214,2147569270,3536,2,13,28426
1366109984,5809,1001.1500244140625000,41.4806594848632800,576.0153198242188000,3.9884800910949707,55.4606094360351560,54,97,99,78,81,15466,0,0,0,0,2147126628,2147770294,2147572022,2147568877,39,2,13,14598
1366113584,5811,1005.2100219726562000,40.8160018920898440,576.1812744140625000,3.9833130836486816,55.5582084655761700,54,102,99,79,82,15465,0,0,0,0,2147125476,2147771885,2147573266,2147568411,221,2,13,35701
1366117184,5807,1006.8300170898438000,40.7448692321777340,576.1273193359375000,3.9849929809570312,55.5707588195800800,55,99,101,78,82,15464,0,0,0,0,2147124196,2147768384,2147571035,2147569664,322,2,13,25119
1366120784,5808,1003.6699829101562000,41.0353889465332000,576.1602172851562000,3.9839689731597900,55.5265388488769500,54,97,100,79,81,15464,0,0,0,0,2147124315,2147771885,2147575789,2147570230,263,2,13,16292
1366124384,5810,1010.0000000000000000,41.5407104492187500,575.1373291015625000,4.0158038139343260,55.4416084289550800,55,98,100,79,82,15463,0,0,0,0,2147121974,2147770724,2147573293,2147566893,12,2,13,3709
1366127984,5810,1000.0700073242188000,41.7494697570800800,575.7470703125000000,3.9968280792236330,55.4207305908203100,56,98,100,79,82,15464,0,0,0,0,2147123556,2147775314,2147571136,2147564681,1200,3,13,26129
1366131584,5811,1011.3699951171875000,41.4563407897949200,575.7858886718750000,3.9956169128417970,55.4622611999511700,55,97,107,93,111,15463,0,0,0,0,2147120274,2147769773,2147572754,2147571803,245,2,13,47596
1366135184,5813,1007.8099975585938000,41.0317916870117200,575.6862792968750000,3.9987199306488037,55.5247306823730500,54,98,101,78,81,15460,0,0,0,0,2147123209,2147770249,2147575506,2147569728,17,2,13,57254
1366138784,5811,1005.7999877929688000,40.6493911743164060,575.9135131835938000,3.9916479587554930,55.5790901184082000,55,100,99,78,81,15464,0,0,0,0,2147121910,2147770450,2147572178,2147568228,2249,2,13,47854
1366142384,5810,1014.3599853515625000,42.0101013183593750,575.7437133789062000,3.9969310760498047,55.3784217834472660,55,100,100,78,83,15461,0,0,0,0,2147119360,2147771803,2147572205,2147568027,329,2,13,64393
1366143956,5810,1002.3599853515625000,41.8101310729980500,575.7340698242188000,3.9972319602966310,55.4072303771972660,54,99,100,78,81,15463,0,0,0,0,2147124169,2147775542,2147573193,2147569298,1800,2,13,63082
